This is the latest recevied weather packets stored in our database for station/object LA5NNA. If no packets are shown the sender has not sent any weather packets the latest 10 day(s).
| Time | Temp. | Humidity | Pressure | Rain* | Wind** | Luminosity | Snow |
|---|---|---|---|---|---|---|---|
| 1777503307 | 7.78° C | 83% | 1029.3 hPa | 0 mm | - | 0 W/m² | - |
| 1777502407 | 7.78° C | 83% | 1029.4 hPa | 0 mm | - | 0 W/m² | - |
| 1777501207 | 8.33° C | 82% | 1029.3 hPa | 0 mm | - | 0 W/m² | - |
| 1777498211 | 8.33° C | 81% | 1029.2 hPa | 0 mm | - | 0 W/m² | - |
| 1777496707 | 8.89° C | 80% | 1029.2 hPa | 0 mm | - | 0 W/m² | - |
| 1777494307 | 8.89° C | 80% | 1029.2 hPa | 0 mm | - | 0 W/m² | - |
| 1777493407 | 8.89° C | 80% | 1029.3 hPa | 0 mm | - | 0 W/m² | - |
| 1777492811 | 8.89° C | 79% | 1029.3 hPa | 0 mm | - | 0 W/m² | - |
| 1777491307 | 9.44° C | 78% | 1029.2 hPa | 0 mm | - | 0 W/m² | - |
| 1777488607 | 10° C | 76% | 1029.1 hPa | 0 mm | - | 0 W/m² | - |
| 1777486507 | 10.56° C | 74% | 1029.1 hPa | 0 mm | - | 0 W/m² | - |
| 1777485007 | 10.56° C | 73% | 1029 hPa | 0 mm | - | 0 W/m² | - |
| 1777484107 | 10.56° C | 73% | 1029 hPa | 0 mm | - | 0 W/m² | - |
| 1777483206 | 11.11° C | 72% | 1029 hPa | 0 mm | - | 0 W/m² | - |
| 1777481706 | 11.67° C | 70% | 1029.4 hPa | 0 mm | - | 0 W/m² | - |
| 1777480506 | 11.67° C | 70% | 1029.3 hPa | 0 mm | - | 0 W/m² | - |
| 1777478706 | 12.22° C | 68% | 1029.6 hPa | 0 mm | - | 0 W/m² | - |
| 1777477206 | 12.78° C | 66% | 1029.7 hPa | 0 mm | - | 0 W/m² | - |
| 1777474207 | 13.33° C | 64% | 1029.9 hPa | 0 mm | - | 2 W/m² | - |
| 1777473010 | 13.33° C | 63% | 1029.9 hPa | 0 mm | - | 0 W/m² | - |
| 1777472706 | 13.33° C | 63% | 1029.9 hPa | 0 mm | - | 0 W/m² | - |
| 1777472406 | 13.33° C | 62% | 1029.8 hPa | 0 mm | - | 0 W/m² | - |
| 1777470606 | 13.33° C | 66% | 1030 hPa | 0 mm | - | 0 W/m² | - |
| 1777470306 | 13.33° C | 66% | 1029.9 hPa | 0 mm | - | 0 W/m² | - |
| 1777470006 | 13.33° C | 66% | 1030 hPa | 0 mm | - | 0 W/m² | - |
* Rain latest hour (hover to see other rain measurements)
** Current wind speed in m/s (hover to see current wind gust speed)